Wetbulb
38.71 35.06 31.70 34.62 35.57 36.20 34.35 32.20 31.91 35.67 40.16 36.03 36.27 37.67 39.02 41.05 40.70 40.63 41.97 41.52 41.97 43.53 47.50 48.04 49.90 53.04 55.99 59.11 61.65 64.08 65.94 66.43 66.92 66.95 67.19 66.47 66.22 67.28 67.55 68.32 68.73 68.39 68.22 69.14
35.79 32.46 37.84 38.95 38.02 36.83 35.25 32.83 32.50 36.05 39.57 36.84 36.05 36.29 38.90 39.25 40.23 41.01 41.35 42.20 41.64 42.08 44.31 47.11 51.12 53.73 55.79 58.72 60.35 62.35 65.59 66.09 66.36 67.65 68.03 67.73 67.15 66.65 67.10 67.84 68.49 68.88 68.56 68.67
34.06 37.11 40.97 39.48 37.31 36.18 34.53 32.45 33.12 33.84 37.91 37.58 35.69 34.80 36.31 39.37 40.93 42.94 43.27 42.96 42.72 42.99 43.14 44.88 50.56 53.23 53.96 55.72 57.83 61.65 64.66 66.50 66.97 66.94 65.81 65.22 65.67 66.21 65.63 66.94 67.57 68.42 69.10 69.54
36.22 39.73 39.67 36.74 36.33 36.84 32.07 38.15 38.27 37.33 33.19 28.22 35.87 28.25 35.37 36.85 38.15 40.48 41.85 41.16 41.55 42.40 43.67 44.67 46.73 52.27 53.28 54.04 55.18 59.43 62.65 63.88 65.41 66.64 65.88 65.30 63.91 63.09 65.69 66.44 67.75 67.62 68.15 68.67
36.39 37.06 36.10 35.47 37.00 40.50 36.84 41.31 38.57 36.27 32.05 28.06 30.56 26.31 32.78 35.05 35.02 37.38 40.69 42.49 42.10 43.46 44.10 45.20 45.42 50.05 53.61 54.10 53.63 57.04 59.70 59.48 60.63 63.65 65.39 64.79 62.33 63.17 63.44 64.50 64.62 65.20 66.31 67.10
37.43 41.63 39.70 38.60 41.79 42.37 42.83 38.33 36.19 31.49 28.75 24.41 31.96 29.73 32.43 35.94 35.39 37.15 39.85 42.09 44.87 44.67 44.59 44.08 46.26 47.27 52.02 52.56 52.43 53.97 55.17 54.62 55.51 56.72 58.00 59.98 61.11 60.93 61.21 61.79 62.66 63.34 64.52 65.47
35.89 37.25 41.25 43.35 38.47 40.66 38.97 33.25 26.86 23.58 22.22 25.51 32.01 28.05 33.51 37.40 39.66 39.16 40.04 42.57 42.93 42.93 43.19 44.26 42.75 44.19 49.46 51.47 52.19 52.23 52.06 51.92 52.87 54.58 56.40 57.27 57.54 57.43 58.02 58.98 59.59 60.67 62.33 63.93
29.88 28.21 38.36 42.92 39.37 35.79 35.18 33.82 25.98 20.35 21.74 25.54 32.17 28.21 31.85 39.71 42.59 43.22 43.64 42.58 43.26 43.15 42.68 43.52 44.04 45.41 49.40 52.41 52.83 53.24 51.36 51.66 52.73 53.52 53.76 54.17 54.81 55.35 55.96 56.37 57.22 58.32 60.12 61.65
30.93 32.20 40.93 42.26 42.34 40.12 34.61 30.76 34.21 25.27 29.61 27.52 27.47 31.26 37.14 39.99 41.56 43.01 42.55 43.33 42.55 42.89 43.74 43.22 44.88 45.10 49.00 51.07 51.95 52.38 50.75 51.21 52.53 53.28 53.03 53.68 54.24 54.51 54.41 55.48 56.70 56.68 57.68 59.48
34.13 28.79 37.02 40.18 41.52 40.77 36.61 38.70 26.27 31.04 23.60 23.43 26.01 27.10 28.71 35.00 38.21 40.59 41.41 41.30 42.32 43.42 44.36 45.21 45.38 45.26 46.17 47.16 47.99 49.89 50.88 50.78 52.41 52.48 52.56 53.14 53.28 54.02 54.30 54.30 55.10 56.06 57.01 58.80
35.19 31.21 31.22 34.54 33.67 31.87 31.25 31.17 33.17 34.65 31.76 25.56 24.19 25.62 37.22 37.32 39.48 40.45 40.49 41.68 41.62 42.41 44.36 45.03 46.12 47.23 47.17 45.79 47.22 48.89 49.36 49.01 49.77 51.18 52.16 53.18 53.42 54.34 54.75 55.13 55.73 55.95 56.67 57.09
35.97 31.74 27.93 30.66 35.33 37.63 33.72 31.44 31.84 24.07 23.01 29.38 29.42 27.74 40.33 39.03 39.56 40.97 41.76 42.93 43.33 43.33 44.53 45.99 48.04 48.51 48.54 48.21 47.47 46.87 48.47 48.92 48.76 49.35 51.58 52.68 53.72 53.73 54.23 55.15 55.71 55.83 56.13 57.17
37.37 29.06 24.69 26.48 29.29 33.10 31.40 34.18 33.90 31.85 31.59 27.52 25.02 24.89 39.51 40.18 40.67 42.18 40.73 42.08 42.49 44.08 44.96 46.17 46.92 46.94 48.11 48.53 49.06 48.57 47.97 48.17 49.64 49.11 49.16 49.64 50.36 50.37 51.24 52.04 53.26 54.16 55.05 56.35
40.01 28.74 27.91 23.27 26.73 28.49 28.07 31.60 33.68 30.91 25.55 26.88 27.98 30.37 35.93 37.83 38.76 40.38 40.92 41.36 41.25 42.37 43.38 44.25 45.15 47.62 48.98 49.55 49.40 48.91 48.52 48.55 49.36 49.41 49.31 49.38 49.35 49.97 50.87 52.15 52.78 53.36 54.47 54.64
34.07 28.41 28.90 29.94 31.50 31.95 31.67 32.17 32.51 29.99 31.39 28.58 31.03 31.04 34.96 37.75 38.09 38.68 40.28 41.22 41.46 41.56 42.12 43.09 43.71 44.39 46.74 46.88 47.39 48.48 48.47 48.62 48.96 48.77 48.41 49.18 50.70 50.63 50.73 50.91 51.26 52.15 52.37 52.82
33.10 28.83 30.34 29.60 33.66 33.15 30.95 32.65 33.33 34.81 35.30 33.92 33.70 33.21 37.93 39.07 39.09 39.07 39.37 40.17 40.11 40.98 42.15 42.98 43.98 44.50 44.09 44.75 44.89 46.07 46.44 46.98 48.13 48.03 48.01 49.47 49.31 49.70 49.84 50.31 50.20 49.99 50.29 50.69
29.98 28.35 26.49 24.86 30.55 29.77 25.69 31.31 34.09 34.45 35.97 35.11 31.45 33.84 37.03 36.44 37.49 37.72 38.44 39.64 39.71 40.52 41.76 42.46 43.01 43.73 43.95 44.07 44.86 44.49 45.58 46.32 46.68 47.25 48.17 49.14 49.64 49.50 49.55 50.09 49.72 48.89 48.71 49.10
28.26 27.82 27.01 23.96 26.49 19.57 30.33 38.52 37.97 36.05 37.44 37.80 37.33 37.20 37.34 38.07 38.38 39.26 40.33 39.62 39.85 40.98 41.75 42.31 42.95 43.51 44.63 45.70 44.76 44.74 45.17 45.23 45.63 46.03 46.77 48.23 48.78 49.05 49.40 49.14 49.00 48.81 48.59 48.32
32.10 30.76 29.53 22.65 21.45 27.36 31.10 37.40 36.36 33.18 32.05 36.58 34.80 36.02 37.94 37.74 37.95 37.40 39.65 40.76 41.09 41.58 42.33 43.57 44.57 44.84 45.28 45.49 46.22 45.85 44.78 44.70 44.80 44.91 45.38 46.42 47.71 48.46 49.09 48.48 48.74 48.36 47.98 47.99
34.05 35.94 32.22 27.23 20.75 16.00 28.53 38.77 39.90 37.74 28.74 36.96 36.54 35.83 35.80 36.79 31.80 35.09 41.14 42.43 43.14 43.95 44.25 44.73 45.11 44.81 44.62 45.80 46.66 45.16 43.65 43.70 43.61 44.70 45.17 46.11 46.71 47.82 48.45 48.89 49.05 48.45 48.83 48.79
30.70 31.87 29.11 27.61 25.21 27.12 34.70 38.24 39.30 26.93 27.90 35.76 36.82 36.44 36.35 35.46 37.73 40.50 42.71 42.82 44.30 44.12 44.49 45.11 43.95 43.34 43.89 44.75 44.98 43.66 43.34 42.27 44.06 45.39 45.81 45.93 46.12 46.16 47.65 48.92 49.22 48.31 48.29 49.03
29.23 22.62 23.40 29.88 23.40 19.58 37.84 36.47 29.80 32.47 36.20 37.12 37.87 38.14 37.98 39.13 40.43 41.34 42.33 42.23 41.37 41.79 41.99 42.33 41.74 41.32 42.18 42.77 42.66 41.69 41.16 43.13 44.71 45.13 45.03 45.01 45.50 45.94 46.51 46.54 48.51 48.61 47.49 46.91
29.03 31.08 26.12 28.68 26.81 33.60 36.23 35.29 36.97 37.58 37.01 38.02 38.83 39.62 40.14 39.99 40.17 41.07 40.50 40.68 41.08 40.18 39.81 40.55 39.84 39.66 40.35 40.83 41.03 39.60 41.01 42.95 43.56 44.14 44.36 44.56 45.33 45.65 46.82 46.59 47.30 46.32 46.45 47.08
37.72 36.99 27.35 31.00 33.21 33.17 35.56 37.19 37.76 38.19 38.72 39.56 40.43 40.77 40.88 39.73 40.41 39.96 40.65 40.23 39.11 38.38 37.87 38.38 37.21 36.27 36.75 38.78 39.92 39.97 40.73 41.76 42.32 43.06 43.09 44.14 44.30 44.76 45.94 47.01 47.72 46.63 45.97 46.35
33.63 33.44 31.23 30.60 31.97 34.56 35.75 37.13 38.32 39.41 40.01 40.24 40.68 40.61 40.35 40.63 39.96 39.03 39.05 39.66 37.33 36.61 36.79 37.03 36.35 36.92 37.77 39.73 41.27 42.08 39.47 40.59 40.25 42.13 42.26 42.31 44.09 44.37 44.89 46.13 47.44 47.28 48.68 47.61
33.57 32.54 26.70 25.40 31.32 33.08 34.80 39.09 40.53 39.04 38.80 39.97 39.35 39.54 40.91 40.68 38.69 39.37 39.16 38.59 36.42 34.77 36.46 37.46 38.18 38.71 40.38 41.71 39.94 41.10 40.12 39.75 40.79 41.20 40.85 43.59 44.34 45.06 46.08 46.58 47.11 42.46 43.98 42.57
MSLP
1009.98 1010.64 1011.17 1011.45 1011.71 1011.83 1012.16 1012.29 1012.07 1011.17 1009.99 1010.02 1009.25 1008.06 1007.99 1007.43 1007.18 1006.83 1006.24 1005.96 1005.71 1005.04 1003.69 1003.44 1003.33 1003.58 1003.80 1004.16 1004.16 1004.30 1004.71 1005.14 1005.63 1006.22 1007.07 1007.71 1008.16 1008.22 1008.74 1008.88 1008.26 1008.37 1009.21 1010.32
1010.87 1010.86 1010.53 1010.84 1011.28 1011.69 1011.97 1012.11 1011.77 1011.01 1010.04 1009.98 1009.41 1007.94 1007.57 1007.57 1007.05 1006.41 1006.25 1005.90 1005.38 1004.78 1004.06 1003.48 1003.10 1003.28 1003.70 1003.35 1003.84 1004.09 1004.18 1004.55 1005.05 1005.66 1006.35 1006.96 1007.23 1007.53 1007.93 1008.44 1008.91 1009.31 1008.27 1009.08
1010.80 1010.19 1010.01 1010.53 1010.83 1011.30 1011.33 1011.58 1011.30 1011.02 1010.23 1009.76 1009.55 1007.90 1007.66 1007.23 1006.86 1006.24 1005.65 1005.38 1005.26 1005.06 1004.44 1003.70 1003.63 1003.36 1003.41 1003.49 1003.38 1003.47 1003.59 1004.05 1004.55 1005.43 1006.21 1007.00 1007.24 1007.37 1007.97 1007.93 1008.02 1008.28 1008.29 1008.66
1010.28 1009.53 1009.69 1009.94 1010.30 1010.58 1010.85 1010.43 1010.67 1010.76 1010.82 1010.74 1010.00 1008.13 1007.69 1006.97 1006.47 1006.10 1005.29 1005.13 1004.97 1004.75 1004.28 1003.88 1003.65 1003.72 1003.58 1003.29 1003.55 1003.64 1003.61 1004.01 1004.42 1005.10 1005.70 1006.39 1006.74 1007.18 1007.21 1006.98 1007.08 1007.50 1007.91 1009.07
1009.40 1009.26 1009.48 1009.69 1009.64 1009.96 1010.26 1010.28 1010.78 1011.00 1011.22 1010.95 1010.71 1010.36 1006.47 1006.58 1006.12 1005.97 1005.60 1004.96 1004.51 1004.50 1004.34 1003.77 1003.37 1002.94 1003.03 1003.61 1003.64 1003.67 1003.99 1004.28 1004.45 1004.72 1005.07 1005.76 1006.60 1006.66 1006.86 1007.06 1007.39 1007.63 1008.05 1008.39
1009.25 1009.03 1009.17 1009.17 1009.43 1009.87 1010.24 1010.73 1011.20 1011.48 1011.98 1011.34 1010.68 1010.30 1005.83 1006.16 1005.70 1005.16 1005.02 1004.72 1004.79 1004.50 1004.25 1003.83 1003.12 1002.71 1002.79 1003.05 1003.47 1003.96 1003.99 1004.09 1004.46 1004.75 1005.06 1005.21 1005.65 1006.30 1006.89 1007.20 1007.72 1007.81 1007.86 1008.08
1009.50 1009.30 1009.32 1009.39 1009.94 1010.49 1010.95 1011.66 1012.48 1012.77 1012.86 1011.10 1010.14 1009.58 1007.27 1005.73 1005.48 1005.07 1004.89 1004.94 1004.90 1004.79 1004.20 1003.61 1003.33 1003.03 1002.56 1002.78 1003.05 1003.51 1004.01 1004.16 1004.31 1004.41 1004.79 1005.18 1005.66 1006.57 1007.05 1007.30 1007.37 1007.54 1007.69 1007.71
1010.21 1010.06 1009.75 1009.85 1010.19 1010.76 1011.57 1012.48 1013.86 1013.19 1013.11 1011.90 1011.04 1009.15 1006.92 1005.93 1005.52 1005.21 1005.15 1005.35 1005.08 1004.75 1004.22 1003.64 1002.81 1002.37 1001.99 1001.95 1002.21 1002.64 1003.41 1003.84 1004.15 1004.26 1004.70 1005.15 1005.56 1006.06 1006.65 1007.02 1007.19 1007.30 1007.62 1007.51
1010.89 1010.75 1010.05 1010.14 1010.45 1011.14 1012.49 1013.20 1013.77 1014.17 1013.81 1013.12 1010.92 1008.96 1007.19 1006.44 1005.78 1005.86 1005.86 1005.79 1005.47 1005.17 1004.51 1003.60 1002.93 1002.44 1001.92 1001.80 1002.08 1002.79 1003.25 1003.61 1004.03 1003.98 1004.31 1004.92 1005.44 1005.99 1006.38 1006.70 1006.85 1007.05 1007.30 1007.45
1011.01 1011.43 1011.06 1010.96 1011.09 1011.76 1012.41 1013.36 1014.35 1014.90 1014.30 1012.54 1010.81 1009.63 1008.15 1007.12 1006.87 1006.59 1006.50 1006.37 1006.13 1005.20 1004.43 1003.83 1003.51 1002.89 1002.16 1002.00 1002.62 1002.99 1003.36 1003.46 1003.46 1003.72 1004.06 1004.55 1005.03 1005.47 1005.95 1006.48 1006.74 1006.85 1007.02 1007.31
1011.55 1012.29 1012.28 1012.09 1012.08 1012.32 1013.24 1013.69 1014.44 1015.15 1014.82 1013.62 1012.07 1010.07 1008.91 1008.25 1008.02 1007.56 1006.89 1006.60 1006.24 1005.50 1004.68 1003.72 1003.34 1002.94 1002.38 1001.94 1002.49 1002.97 1003.27 1003.38 1003.68 1003.78 1003.92 1004.18 1004.61 1004.91 1005.49 1005.97 1006.29 1006.61 1006.86 1007.05
1011.98 1012.71 1013.02 1012.59 1012.25 1012.32 1012.81 1013.26 1014.03 1014.95 1014.57 1014.07 1013.05 1010.29 1008.48 1008.15 1007.85 1007.71 1007.41 1006.81 1006.41 1005.88 1005.11 1004.18 1003.26 1002.81 1003.07 1002.71 1002.51 1002.66 1002.76 1003.13 1003.41 1003.78 1004.12 1004.21 1004.30 1004.60 1005.17 1005.51 1005.76 1006.07 1006.34 1006.54
1011.86 1012.97 1013.50 1012.99 1012.92 1012.55 1012.86 1013.24 1013.77 1014.27 1014.52 1013.84 1013.13 1010.29 1008.65 1008.40 1008.31 1008.14 1007.79 1007.17 1006.44 1005.69 1004.91 1004.47 1003.93 1003.52 1003.02 1002.86 1002.63 1002.61 1002.76 1002.88 1002.87 1003.04 1003.59 1003.95 1003.94 1004.47 1004.98 1005.03 1005.38 1005.69 1006.01 1006.21
1011.49 1012.81 1013.38 1013.59 1013.16 1013.08 1013.18 1013.08 1013.39 1013.78 1014.00 1012.89 1011.77 1009.89 1009.13 1009.03 1008.71 1008.25 1007.87 1007.48 1006.72 1005.97 1005.31 1004.53 1003.93 1003.68 1003.73 1003.60 1003.42 1003.06 1002.79 1002.34 1002.40 1002.65 1002.73 1003.06 1003.59 1003.79 1004.09 1004.55 1004.94 1005.10 1005.36 1005.69
1012.16 1013.10 1013.44 1013.25 1013.02 1012.90 1012.63 1012.62 1012.69 1012.93 1012.55 1012.44 1010.52 1010.08 1009.07 1008.83 1008.61 1008.45 1008.19 1007.65 1007.13 1006.28 1005.45 1004.68 1004.18 1003.79 1003.66 1003.53 1003.51 1003.48 1003.43 1003.05 1002.86 1002.62 1002.58 1002.75 1002.69 1002.99 1003.55 1003.82 1004.19 1004.72 1004.89 1005.15
1012.84 1013.42 1013.68 1013.54 1012.96 1012.64 1012.26 1011.85 1011.80 1011.83 1011.61 1011.17 1010.67 1009.70 1008.82 1008.86 1008.80 1008.64 1008.30 1007.83 1007.13 1006.33 1005.42 1004.75 1004.22 1003.87 1003.63 1003.44 1003.25 1003.24 1003.23 1002.99 1002.86 1002.80 1002.36 1002.54 1002.91 1002.68 1002.68 1003.07 1003.44 1003.89 1004.50 1004.79
1013.35 1013.83 1014.29 1013.84 1013.23 1012.76 1011.83 1010.74 1011.02 1011.21 1011.13 1011.03 1010.64 1009.72 1009.47 1009.15 1009.03 1008.84 1008.41 1007.82 1007.00 1006.13 1005.39 1004.63 1004.06 1003.67 1003.28 1003.08 1003.09 1002.86 1002.71 1002.52 1002.45 1002.23 1002.11 1001.94 1002.17 1002.27 1002.57 1002.52 1002.89 1003.19 1003.57 1004.12
1013.53 1014.17 1014.56 1014.25 1013.71 1012.68 1011.03 1010.47 1010.63 1010.90 1010.64 1010.45 1010.18 1009.92 1009.76 1009.44 1009.00 1008.54 1008.03 1007.18 1006.25 1005.58 1004.77 1004.24 1003.78 1003.32 1002.80 1002.40 1002.14 1001.81 1001.58 1001.50 1001.48 1001.41 1001.52 1001.44 1001.58 1001.61 1001.91 1002.23 1002.42 1002.54 1002.89 1003.26
1012.93 1013.76 1014.21 1014.54 1014.25 1012.25 1010.71 1010.46 1010.56 1010.83 1010.34 1010.23 1010.24 1010.13 1009.66 1009.17 1008.53 1007.13 1006.87 1006.28 1005.54 1004.89 1004.33 1003.68 1002.99 1002.51 1002.05 1001.49 1000.89 1000.67 1000.42 1000.40 1000.27 1000.23 1000.64 1000.94 1001.03 1001.05 1001.22 1001.28 1001.61 1001.80 1002.21 1002.61
1013.03 1013.40 1014.24 1014.64 1014.39 1012.73 1011.05 1010.47 1010.57 1010.84 1010.68 1010.55 1010.60 1010.27 1009.78 1009.30 1008.21 1006.26 1005.89 1005.56 1004.82 1004.11 1003.22 1002.18 1001.58 1001.15 1000.72 999.99 999.56 999.12 998.74 998.64 998.45 998.82 999.15 999.60 999.74 999.89 1000.10 1000.26 1000.52 1001.03 1001.16 1001.44
1013.34 1013.81 1014.03 1014.20 1013.95 1012.40 1011.19 1010.93 1010.81 1011.53 1011.72 1010.98 1010.64 1010.12 1009.64 1009.02 1007.95 1005.76 1005.10 1004.24 1003.62 1002.66 1001.87 1001.32 1000.90 999.85 998.94 998.87 998.54 997.37 997.06 996.38 996.82 997.18 997.50 997.99 998.38 998.57 998.84 999.31 999.70 1000.01 1000.46 1000.68
1013.17 1013.89 1014.00 1013.91 1013.80 1012.79 1011.46 1011.36 1011.80 1011.85 1011.36 1010.88 1010.33 1009.72 1008.88 1007.91 1006.56 1005.54 1004.52 1003.48 1002.72 1001.65 1000.68 1000.32 999.25 998.32 997.39 997.06 996.83 995.73 995.14 995.33 995.37 995.18 995.41 996.08 996.77 997.30 997.81 998.31 998.59 999.01 999.54 999.99
1013.09 1013.26 1013.79 1013.68 1012.92 1012.34 1012.01 1011.97 1011.69 1011.89 1011.48 1010.62 1010.11 1009.12 1008.24 1007.03 1005.91 1005.00 1003.67 1002.46 1001.54 1000.69 999.54 998.88 998.04 996.75 995.59 995.12 994.55 993.65 992.89 993.61 993.60 993.51 993.32 994.18 995.10 995.78 996.47 996.81 997.13 997.81 998.48 999.14
1012.65 1012.98 1013.50 1013.55 1012.95 1012.69 1012.05 1012.04 1012.06 1011.85 1011.15 1010.46 1009.70 1008.66 1007.75 1006.37 1005.22 1003.99 1002.53 1001.41 1000.54 999.55 998.43 997.40 996.54 995.25 993.80 992.82 992.05 991.13 991.10 991.53 991.89 991.88 992.53 993.06 993.72 994.26 995.06 995.79 996.11 996.70 997.45 998.11
1013.12 1013.32 1013.73 1013.71 1013.15 1012.64 1012.21 1012.09 1011.94 1011.03 1010.52 1009.85 1008.98 1008.26 1007.21 1006.04 1004.55 1003.56 1001.81 1000.55 999.69 998.65 997.35 996.34 995.10 993.60 992.12 990.67 989.19 987.84 987.86 989.29 990.14 990.83 991.41 992.25 992.88 993.23 994.10 994.72 995.27 995.77 996.31 997.02
1013.16 1013.42 1014.03 1014.07 1013.84 1013.74 1012.83 1012.13 1011.52 1010.81 1010.00 1009.17 1008.53 1007.51 1006.60 1005.58 1004.19 1002.74 1001.25 1000.11 998.88 997.64 996.31 995.05 993.84 992.37 990.82 989.47 988.32 986.02 985.45 988.01 989.11 989.74 990.84 991.44 991.76 992.60 993.34 993.98 994.64 995.22 995.87 996.62
Wind_Speed
3 3 6 8 7 4 2 2 5 8 15 3 12 17 11 10 7 11 14 8 9 12 17 10 8 8 8 4 7 10 12 10 10 8 10 7 10 9 6 5 10 15 12 11
5 7 9 5 4 5 5 5 8 7 10 5 10 17 9 5 8 8 9 12 10 8 10 10 7 7 10 13 10 8 11 10 10 8 6 3 8 6 6 5 5 7 7 10
7 7 5 5 4 4 5 5 5 7 6 3 5 13 8 5 5 8 9 8 7 9 11 9 7 7 4 9 11 11 11 10 8 7 6 3 4 4 2 3 4 5 5 5
6 5 5 2 6 6 5 5 5 5 3 6 5 18 12 7 9 8 12 8 9 9 7 7 7 6 7 8 4 5 6 8 7 9 8 9 5 4 5 4 3 3 4 5
10 3 3 5 7 5 8 2 4 4 5 3 4 4 11 4 6 7 10 12 10 8 8 10 10 10 9 6 8 6 6 7 7 8 9 8 6 4 3 2 5 3 3 3
6 1 4 6 2 2 1 1 3 2 2 8 11 10 20 16 8 5 5 6 8 9 8 11 12 9 7 5 7 7 9 7 7 7 7 7 8 7 5 4 4 5 4 5
1 4 1 1 1 1 4 5 6 5 2 11 4 6 18 12 9 7 8 6 8 8 9 9 10 11 10 11 11 8 8 8 8 8 7 6 6 7 7 5 4 5 3 3
3 4 5 2 3 4 2 5 5 10 9 15 6 7 9 5 5 3 3 5 4 8 7 9 9 11 14 14 15 14 11 8 8 8 8 7 7 4 4 5 4 4 4 3
3 4 3 1 2 4 1 2 3 1 4 5 6 7 9 4 6 7 7 8 5 8 8 9 7 3 1 6 10 7 7 7 7 8 7 7 6 6 6 6 5 4 4 3
3 2 2 2 3 3 3 4 1 1 6 6 4 4 6 7 10 11 13 8 10 5 6 6 7 7 4 6 4 2 3 9 10 8 7 8 8 7 6 5 6 6 4 3
3 3 3 1 4 6 1 1 3 2 4 4 4 6 3 4 5 9 9 9 10 8 5 2 4 6 7 6 1 3 4 2 4 4 5 7 8 7 7 6 5 5 5 5
3 5 3 7 4 5 5 5 6 4 4 2 4 7 4 4 7 5 11 12 9 8 9 7 4 2 3 3 2 3 4 6 6 4 4 7 4 5 6 6 7 7 7 6
7 0 2 8 6 4 2 2 4 2 1 6 4 7 4 4 7 6 6 12 13 14 11 9 6 6 4 3 2 3 4 7 6 7 7 6 7 6 7 8 7 6 6 6
8 3 7 7 7 5 5 4 5 6 3 8 12 20 16 8 6 8 9 10 13 13 12 11 11 8 4 5 6 6 5 4 5 7 8 9 8 9 9 7 6 8 7 6
4 4 5 6 7 6 9 10 9 8 13 10 16 15 13 6 6 6 7 10 14 15 16 16 13 9 5 7 6 5 5 5 5 4 4 8 9 8 7 8 8 6 7 6
2 2 2 4 9 8 10 9 9 10 5 6 10 16 4 4 5 7 9 13 16 18 19 16 14 13 7 7 7 5 5 5 5 6 5 4 5 6 9 9 9 8 7 6
3 4 2 5 3 6 7 6 5 3 5 5 8 5 5 6 10 10 14 16 18 18 17 16 15 14 13 9 7 10 9 6 6 6 6 6 5 6 6 7 8 9 9 7
6 5 3 4 5 3 4 2 3 5 10 9 9 6 6 9 12 14 13 18 19 17 16 14 13 16 18 17 13 12 10 9 9 10 9 8 8 8 7 8 9 7 6 8
5 5 1 2 2 8 3 2 1 3 10 3 3 7 13 14 14 17 9 10 16 15 16 20 19 18 20 22 23 18 15 13 13 13 13 12 11 11 10 11 11 9 7 6
4 2 3 2 2 5 4 2 3 1 10 3 7 10 14 13 15 17 16 18 23 23 22 23 19 20 24 24 23 21 19 18 19 17 16 14 14 14 14 13 11 8 8 10
2 0 4 3 4 8 2 5 2 1 5 8 8 13 14 14 14 24 25 25 23 25 23 19 27 25 24 23 24 25 24 27 25 22 19 17 15 15 15 12 11 10 11 8
5 4 3 2 1 8 2 3 1 4 5 10 15 16 19 21 24 23 23 24 27 27 27 26 23 24 25 23 23 28 30 24 24 22 21 19 16 13 12 16 14 12 11 9
1 5 4 7 7 2 2 5 5 3 12 15 17 19 20 21 23 24 27 27 21 27 24 22 21 23 24 22 23 26 27 23 23 21 19 18 15 15 11 14 14 10 10 10
1 2 2 4 1 3 5 2 2 9 13 16 17 19 20 24 26 27 24 24 23 23 24 22 22 23 24 22 23 25 24 22 21 20 21 16 17 16 13 9 10 11 10 10
2 2 1 5 4 8 1 10 12 16 16 17 19 18 21 24 25 28 27 22 23 23 23 20 20 20 23 24 23 23 24 20 18 19 15 12 16 14 13 14 10 9 10 11
4 4 4 5 2 4 7 13 16 16 20 19 19 21 20 23 27 27 23 23 21 21 21 18 19 20 20 15 15 17 12 15 14 11 10 13 9 10 10 10 9 10 12 16
Wind_Direction
13 72 220 223 201 215 255 258 256 266 279 243 271 275 265 264 281 280 285 277 262 255 261 270 231 197 203 196 177 184 180 184 170 171 174 170 185 180 201 228 206 183 182 194
15 255 225 205 179 209 227 256 270 278 261 165 271 275 269 242 246 242 267 292 277 274 281 277 238 190 198 191 199 183 191 170 179 186 186 187 175 185 178 179 202 202 173 185
177 232 97 162 221 211 239 200 246 234 290 280 269 280 297 257 245 282 270 240 279 278 283 281 271 249 208 197 189 188 179 172 168 145 118 75 75 47 261 211 203 200 191 182
230 250 225 229 255 155 266 207 229 272 322 262 143 287 273 253 238 240 264 286 274 289 296 284 281 246 238 226 182 182 164 162 156 154 149 161 173 157 203 182 189 229 164 226
233 191 211 222 228 158 236 329 290 272 263 297 188 263 269 241 252 258 258 259 263 263 272 277 264 244 215 200 208 183 166 167 167 169 171 171 174 155 141 143 142 179 198 234
241 194 168 206 179 210 2 16 302 86 145 260 247 215 274 266 229 244 246 269 307 305 282 254 255 264 237 186 180 190 176 178 168 163 169 172 157 154 158 164 178 197 183 188
305 227 157 117 158 164 70 45 324 312 261 270 6 234 248 310 285 248 264 290 302 291 298 291 249 236 222 193 191 184 188 176 173 157 156 162 160 155 164 167 175 171 177 191
176 319 163 189 201 207 172 159 181 260 273 291 326 246 249 254 281 85 32 296 340 336 314 301 283 231 220 206 188 180 178 172 174 161 165 165 163 162 173 175 173 175 193 216
151 271 299 107 120 117 97 182 185 267 220 263 233 292 310 353 31 8 333 339 343 323 343 342 338 41 87 181 181 182 157 171 185 179 156 165 164 170 185 185 174 171 185 202
198 282 272 336 61 56 168 147 356 280 276 248 268 265 244 342 360 343 334 324 304 308 28 19 2 2 63 101 54 115 209 195 190 174 171 176 177 180 180 167 192 192 183 193
119 127 284 337 182 198 163 168 147 217 243 298 318 292 319 317 274 319 329 329 310 294 308 27 28 15 11 53 130 168 237 306 299 247 189 181 193 186 174 184 190 193 181 190
168 153 229 237 258 243 182 208 143 136 276 272 264 266 248 279 305 344 335 334 333 312 293 303 334 103 335 17 43 319 263 226 226 242 230 227 220 172 182 194 191 187 198 197
181 169 354 344 358 354 111 183 140 128 116 238 245 259 226 334 335 341 325 336 340 338 346 342 317 321 331 291 246 215 222 244 238 183 198 226 203 185 215 204 194 194 186 184
125 143 170 201 227 184 262 223 201 174 213 261 241 277 283 300 312 323 330 330 329 331 330 330 332 342 299 267 295 306 300 257 248 205 195 197 212 204 205 209 193 178 177 168
108 201 197 245 253 247 256 260 257 215 239 240 277 268 281 273 309 300 309 330 326 324 322 320 320 319 325 333 343 339 317 322 317 270 222 227 220 197 191 189 176 185 175 174
20 252 175 270 261 263 268 247 248 248 243 262 266 283 275 332 332 319 310 313 308 305 306 309 308 304 294 299 303 286 289 300 310 303 274 257 255 215 190 187 180 174 187 187
142 145 102 267 324 305 278 214 192 250 243 243 281 271 342 322 326 315 307 298 291 291 290 293 297 298 286 278 256 271 267 246 249 249 263 275 251 216 240 204 192 188 186 187
145 134 147 269 342 255 250 183 206 238 267 270 258 284 303 303 299 296 283 277 280 280 276 274 284 288 288 284 277 271 257 246 242 253 250 250 251 248 212 217 221 206 184 194
161 152 165 200 223 288 303 197 247 337 287 313 314 321 314 311 311 292 264 272 279 276 279 282 278 274 277 275 277 267 258 245 243 245 244 239 235 240 239 225 224 206 190 193
124 26 152 154 189 244 238 160 2 265 282 40 347 306 303 317 301 295 303 294 286 281 276 278 272 285 276 268 261 257 256 258 258 256 249 239 228 223 223 225 224 206 205 206
85 65 192 202 227 284 257 317 311 307 297 302 299 300 299 290 280 291 296 296 289 293 287 291 289 274 273 272 265 258 258 259 259 252 246 236 228 225 226 224 219 208 210 201
176 151 212 164 218 282 15 7 96 259 296 298 306 302 297 292 291 295 301 298 298 298 295 289 284 278 272 265 261 258 256 256 256 247 237 230 225 220 226 229 224 211 202 198
207 189 195 177 221 254 332 227 273 277 298 299 300 300 296 298 300 303 299 296 299 299 293 291 285 283 277 268 255 255 253 250 243 246 232 224 228 217 222 223 215 193 184 206
173 123 175 20 29 309 294 112 335 309 299 300 295 301 307 304 305 304 305 301 306 302 300 298 291 284 281 273 261 250 246 240 238 231 232 224 225 218 217 226 207 196 191 193
229 69 202 268 316 326 117 342 318 308 303 307 309 311 309 304 312 311 307 307 304 303 302 298 293 289 288 286 280 261 228 221 222 224 209 232 224 203 210 214 207 193 197 188
173 178 159 238 200 228 279 310 313 316 317 316 316 311 308 312 310 312 310 308 306 302 302 302 302 298 299 314 323 334 159 192 206 191 199 214 188 194 198 200 194 193 182 188